Regional Weather Roundup
Issued by NWS Upton, NY

Current Version | Previous Version | Text Only | Print | Product List | Glossary Off
Versions: 1 2 3 4 5 6 7 8 9 10 11 12 13 14 15 16 17 18 19 20 21 22 23 24 25 26 27 28
000 ASUS41 KOKX 191508 RWROKX REGIONAL WEATHER ROUNDUP NATIONAL WEATHER SERVICE NEW YORK NY 1000 AM EST SUN FEB 19 2017 NOTE: "FAIR" INDICATES FEW OR NO CLOUDS BELOW 12,000 FEET WITH NO SIGNIFICANT WEATHER AND/OR OBSTRUCTIONS TO VISIBILITY. NYZ071-072-176-178-NJZ106-104-191600- NEW YORK CITY METRO AREA CITY SKY/WX TMP DP RH WIND PRES REMARKS Central Park CLOUDY 58 36 43 W7 29.83S Wall St Helipt NOT AVBL LaGuardia APRT CLOUDY 60 36 40 W8 29.81R Kennedy INTL CLOUDY 59 39 47 W9 29.83R Breezy Point N/A 50 N/A N/A W7G13 N/A Newark/Liberty CLOUDY 60 37 42 W9 29.82R Teterboro MOSUNNY 61 39 44 W7 29.81R $$ NYZ177-179-078>081-191600- LONG ISLAND NEW YORK CITY SKY/WX TMP DP RH WIND PRES REMARKS Jones Beach N/A 50 N/A N/A W8 N/A Matinecock PT N/A 52 N/A N/A SW9 N/A Farmingdale CLOUDY 56 39 53 W7 29.81R MacArthur/ISP CLOUDY 57 38 48 W10 29.80R Shirley CLOUDY 56 38 50 W5 29.80S Westhampton CLOUDY 54 37 52 SW5 29.81R Southampton NOT AVBL Bridgehampton NOT AVBL East Hampton N/A 58 36 44 W7 29.78S Montauk N/A 52 36 54 W9 29.79R $$ NYZ052-065-067-191600- HUDSON VALLEY CITY SKY/WX TMP DP RH WIND PRES REMARKS White Plains MOSUNNY 56 36 47 NW14 29.79R Newburgh PTSUNNY 50 39 66 W14 29.81R Montgomery CLOUDY 48 36 63 SW8 29.80R Poughkeepsie CLOUDY 49 36 61 CALM 29.79R Albany PTSUNNY 48 34 58 W10 29.78R $$ NJZ001-105-106-008-010-013-015-019>022-104-191600- NEW JERSEY CITY SKY/WX TMP DP RH WIND PRES REMARKS Newark/Liberty CLOUDY 60 37 42 W9 29.82R Teterboro MOSUNNY 61 39 44 W7 29.81R Caldwell MOSUNNY 59 37 44 VRB7 29.82R Somerville MOSUNNY 61 38 42 W7 29.82R Linden NOT AVBL Sussex PTSUNNY 51 37 58 S3 29.81S Andover N/A 53 37 54 CALM 29.82S Trenton CLOUDY 58 39 49 W6 29.85R Millville CLOUDY 60 40 47 W6 29.87R Atlantic City CLOUDY 59 37 44 NW7 29.86R Wrightstown CLOUDY 61 39 44 NW10 29.83R Toms River CLOUDY 61 40 45 W9 29.85R Belmar CLOUDY 62 39 42 W13 29.84S $$ PAZ047>061-062-071-191600- EASTERN PENNSYLVANIA CITY SKY/WX TMP DP RH WIND PRES REMARKS Philadelphia CLOUDY 60 39 45 NW10 29.88R Allentown MOSUNNY 59 39 47 W13 29.85R Scranton CLOUDY 54 38 54 SW10 29.85R $$ CTZ002-004>006-009-010-012-RIZ004-006-007-MAZ004-011-015-191600- SOUTHERN NEW ENGLAND IN CT CITY SKY/WX TMP DP RH WIND PRES REMARKS Bradley INTL CLOUDY 50 34 54 W6 29.76R Hartford CLOUDY 50 37 61 VRB3 29.77R Danbury PTSUNNY 52 34 50 W3 29.80R Wtrbury/Oxford PTSUNNY 52 34 50 W5 29.80R Bridgeport PTSUNNY 50 37 61 W6 29.79R Meriden CLOUDY 49 33 54 CALM 29.78R New Haven PTSUNNY 50 36 58 CALM 29.79R Chester N/A 55 36 47 W5 29.78R Groton MOSUNNY 57 35 43 W10 29.77R Wilimantic CLOUDY 54 35 48 W7 29.76S IN RI CITY SKY/WX TMP DP RH WIND PRES REMARKS Providence PTSUNNY 52 35 52 W9 29.74R Block Island SUNNY 53 37 54 W15 29.78R Westerly CLOUDY 59 32 36 W8 29.77R IN MA CITY SKY/WX TMP DP RH WIND PRES REMARKS Boston CLOUDY 51 36 56 SW12 29.71R Worcester CLOUDY 48 32 53 W10 29.71R Westfield PTSUNNY 46 35 65 S7 29.74R Provincetown SUNNY 52 38 58 W12 29.71R Nantucket SUNNY 55 37 50 W15 29.73R $$ ANZ330-335-338-340-345-350-353-355-191600- COASTAL MARINE OBSERVATIONS STATION/POSITION TIME SKY/WX TEMP WIND PRES VSBY WAVE AIR SEA DIR/SP/G HT/PER (UTC) (F) (DEG/KT/KT) (MB) (MI) (FT/S) NY HARB ENTRANCE 1450 47 41 230/ 6/ 6 1009.7 2/ 5 20 S FIRE ISLAND 1450 45 40 250/ 10/ 12 1009.7 2/ 5 GREAT SOUTH BAY NOT AVBL 23 SSW MONTAUK P 1350 45 44 1008.9 3/ 6 15 E BARNEGAT LI 1430 42 N/A 3/ 6 HUDSON CANYON 1450 51 1009.8 4/ 6 KINGS POINT 1436 54 38 1009.1 EXECUTION ROCKS NOT AVBL CENTRAL LI SOUND 1430 42 250/ 6/ 8 N/A 1 EASTERN LI SOUND NOT AVBL ROBBINS REEF 1436 57 270/ 11/ 12 1009.9 $$ >>>>>>>>>>>>>>>>>>>>>>>>>>>> KEY <<<<<<<<<<<<<<<<<<<<<<<<<<< > < > SKY/WX - Sky Condition/Present Weather < > TMP - Temperature in Fahrenheit < > DP - Dew Point in Fahrenheit < > RH - Relative Humidity in Percent < > WIND - Direction (from) and Speed in MPH < > PRES - Mean Sea Level Pressure (inches of Hg) < > WCI - Wind Chill Index < > VSB - VISIBILITY IN MILES < > HX - HEAT INDEX < > TC - TEMPERATURE IN CELSIUS < > VRB - VARIABLE WIND DIRECTION < > < >>>>>>>>>>>>>>>>>>>>>>>>>>>> KEY <<<<<<<<<<<<<<<<<<<<<<<<<<<

USA.gov is the U.S. government's official web portal to all federal, state and local government web resources and services.